Terminal Aerodrome Forecast
Issued by NWS Twin Cities, MN

Home | Current Version | Previous Version | Graphics & Text | Print | Product List | Glossary On
Versions: 1 2 3 4 5 6 7 8 9 10 11 12 13 14 15 16 17 18 19 20 21 22 23 24 25 26 27 28 29 30
000
FTUS43 KMPX 260313 AAA
TAFMSP
TAF AMD
KMSP 260313Z 2603/2706 17004KT P6SM SCT250
     FM260600 17007KT P6SM SCT020
      TEMPO 2606/2609 BKN020
     FM260900 19009KT 5SM -SN OVC015
     FM261500 25008KT 6SM HZ OVC020
     FM262100 30010KT P6SM BKN035=

USA.gov is the U.S. government's official web portal to all federal, state and local government web resources and services.